Weather History for Dublin, VA

Change the Weather History Date:

Wednesday, February 20, 2013

  Actual Average (KBCB) Record (KBCB)
Temperature  
Mean Temperature 32 °F 35 °F  
Max Temperature 39 °F 46 °F 68 °F (1984)
Min Temperature 26 °F 24 °F 2 °F (1972)
Degree Days  
Heating Degree Days 32 30  
Month to date heating degree days 630  
Since 1 July heating degree days 3817  
Cooling Degree Days 0 0  
Month to date cooling degree days 0  
Year to date cooling degree days 0  
Moisture  
Dew Point 8 °F    
Average Humidity 39    
Maximum Humidity 55    
Minimum Humidity 22    
Precipitation  
Precipitation 0.00 in 0.10 in 0.66 in (1957)
Month to date precipitation 2.02  
Year to date precipitation 5.10  
Snow  
Snow 0.00 in - - ()
Month to date snowfall  
Since 1 July snowfall  
Snow Depth -    
Sea Level Pressure  
Sea Level Pressure 30.05 in    
Wind  
Wind Speed 14 mph (WNW)    
Max Wind Speed 22 mph    
Max Gust Speed 32 mph    
Visibility 10 miles    
Events      
T = Trace of Precipitation, MM = Missing Value Source: NWS Daily Summary

Daily Weather History Graph

Daily Weather History Graph

Search for Another Location

Airport:

Trip Planner

Search our weather history database for the weather conditions in past years. The results will help you decide how hot, cold, wet, or windy it might be!

Date:

Astronomy

Feb. 20, 2013 Rise Set
Actual Time 7:05 AM EST 6:08 PM EST
Civil Twilight 6:38 AM EST 6:34 PM EST
Nautical Twilight 6:08 AM EST 7:04 PM EST
Astronomical Twilight 5:38 AM EST 7:35 PM EST
Moon 1:32 PM EST (2/20) 3:20 AM EST (2/20)
Length of Visible Light 11h 55m
Length of Day
11h 02m
Waxing Gibbous, 76% of the Moon is Illuminated
Feb 20
Waxing Gibbous
Feb 25
Full
Mar 4
Last Quarter
Mar 11
New
Mar 19
First Quarter

Hourly Weather History & Observations

Time (EST) Temp. Windchill Dew Point Humidity Pressure Visibility Wind Dir Wind Speed Gust Speed Precip Events Conditions
12:15 AM 33.8 °F 22.5 °F 12.2 °F 41% 29.95 in 10.0 mi West 19.6 mph 26.5 mph N/A   Clear
12:35 AM 33.8 °F 23.2 °F 10.4 °F 38% 29.96 in 10.0 mi West 17.3 mph 32.2 mph N/A   Clear
12:55 AM 30.2 °F 20.2 °F 10.4 °F 44% 29.96 in 10.0 mi West 12.7 mph 18.4 mph N/A   Clear
1:15 AM 32.0 °F 21.2 °F 8.6 °F 38% 29.97 in 10.0 mi West 16.1 mph 32.2 mph N/A   Clear
1:35 AM 30.2 °F 18.9 °F 10.4 °F 44% 29.98 in 10.0 mi West 16.1 mph 26.5 mph N/A   Clear
1:55 AM 30.2 °F 18.5 °F 8.6 °F 40% 29.98 in 10.0 mi WNW 17.3 mph - N/A   Clear
2:15 AM 30.2 °F 18.1 °F 8.6 °F 40% 29.98 in 10.0 mi WNW 18.4 mph 21.9 mph N/A   Clear
2:35 AM 28.4 °F 18.5 °F 8.6 °F 43% 29.97 in 10.0 mi West 11.5 mph - N/A   Clear
2:55 AM 28.4 °F 17.0 °F 8.6 °F 43% 29.97 in 10.0 mi West 15.0 mph 23.0 mph N/A   Clear
3:15 AM 28.4 °F 19.1 °F 10.4 °F 47% 29.97 in 10.0 mi West 10.4 mph 21.9 mph N/A   Clear
3:35 AM 28.4 °F 18.0 °F 10.4 °F 47% 29.98 in 10.0 mi West 12.7 mph 17.3 mph N/A   Clear
4:15 AM 28.4 °F 18.5 °F 8.6 °F 43% 29.99 in 10.0 mi West 11.5 mph 24.2 mph N/A   Clear
4:35 AM 28.4 °F 17.5 °F 10.4 °F 47% 29.99 in 10.0 mi West 13.8 mph 19.6 mph N/A   Clear
4:55 AM 28.4 °F 18.0 °F 10.4 °F 47% 29.99 in 10.0 mi West 12.7 mph 19.6 mph N/A   Clear
5:15 AM 28.4 °F 17.5 °F 10.4 °F 47% 30.00 in 10.0 mi West 13.8 mph 20.7 mph N/A   Clear
5:35 AM 26.6 °F 15.7 °F 10.4 °F 51% 30.01 in 10.0 mi West 12.7 mph 26.5 mph N/A   Clear
5:55 AM 26.6 °F 18.2 °F 10.4 °F 51% 30.01 in 10.0 mi West 8.1 mph 21.9 mph N/A   Clear
6:15 AM 26.6 °F 15.7 °F 10.4 °F 51% 30.01 in 10.0 mi West 12.7 mph 18.4 mph N/A   Clear
6:35 AM 26.6 °F 15.2 °F 8.6 °F 47% 30.02 in 10.0 mi West 13.8 mph 20.7 mph N/A   Clear
6:55 AM 26.6 °F 19.1 °F 8.6 °F 47% 30.02 in 10.0 mi West 6.9 mph 10.4 mph N/A   Clear
7:15 AM 26.6 °F 14.7 °F 10.4 °F 51% 30.03 in 10.0 mi West 15.0 mph - N/A   Clear
7:55 AM 26.6 °F 16.8 °F 10.4 °F 51% 30.04 in 10.0 mi West 10.4 mph - N/A   Clear
8:15 AM 28.4 °F 19.1 °F 10.4 °F 47% 30.05 in 10.0 mi West 10.4 mph - N/A   Clear
8:35 AM 28.4 °F 19.1 °F 8.6 °F 43% 30.05 in 10.0 mi WNW 10.4 mph - N/A   Clear
8:55 AM 28.4 °F 21.2 °F 8.6 °F 43% 30.04 in 10.0 mi West 6.9 mph - N/A   Clear
9:15 AM 30.2 °F 21.9 °F 8.6 °F 40% 30.05 in 10.0 mi West 9.2 mph - N/A   Clear
9:35 AM 30.2 °F 21.3 °F 8.6 °F 40% 30.05 in 10.0 mi WNW 10.4 mph 21.9 mph N/A   Clear
10:15 AM 30.2 °F 19.8 °F 8.6 °F 40% 30.05 in 10.0 mi WNW 13.8 mph 20.7 mph N/A   Clear
10:35 AM 32.0 °F 21.2 °F 6.8 °F 35% 30.04 in 10.0 mi WNW 16.1 mph 23.0 mph N/A   Clear
10:55 AM 33.8 °F 22.8 °F 6.8 °F 32% 30.04 in 10.0 mi WNW 18.4 mph 24.2 mph N/A   Clear
11:15 AM 33.8 °F 24.8 °F 5.0 °F 30% 30.05 in 10.0 mi West 12.7 mph 24.2 mph N/A   Clear
11:35 AM 33.8 °F 25.3 °F 6.8 °F 32% 30.05 in 10.0 mi West 11.5 mph 24.2 mph N/A   Clear
11:55 AM 35.6 °F 28.0 °F 6.8 °F 30% 30.05 in 10.0 mi West 10.4 mph 24.2 mph N/A   Clear
12:15 PM 37.4 °F 28.9 °F 6.8 °F 28% 30.05 in 10.0 mi WNW 13.8 mph 19.6 mph N/A   Clear
12:35 PM 37.4 °F 28.9 °F 5.0 °F 26% 30.04 in 10.0 mi West 13.8 mph 17.3 mph N/A   Clear
12:55 PM 37.4 °F 29.8 °F 5.0 °F 26% 30.03 in 10.0 mi WNW 11.5 mph 18.4 mph N/A   Clear
1:15 PM 37.4 °F 28.5 °F 5.0 °F 26% 30.03 in 10.0 mi West 15.0 mph - N/A   Clear
1:35 PM 39.2 °F 29.0 °F 3.2 °F 22% 30.03 in 10.0 mi West 21.9 mph - N/A   Clear
1:55 PM 39.2 °F 29.6 °F 3.2 °F 22% 30.03 in 10.0 mi West 19.6 mph 24.2 mph N/A   Clear
2:15 PM 39.2 °F 29.8 °F 3.2 °F 22% 30.02 in 10.0 mi West 18.4 mph 23.0 mph N/A   Clear
2:35 PM 39.2 °F 31.2 °F 3.2 °F 22% 30.02 in 10.0 mi West 13.8 mph 19.6 mph N/A   Clear
2:55 PM 39.2 °F 29.6 °F 3.2 °F 22% 30.02 in 10.0 mi West 19.6 mph - N/A   Clear
3:15 PM 39.2 °F 30.8 °F 3.2 °F 22% 30.02 in 10.0 mi West 15.0 mph - N/A   Clear
3:55 PM 39.2 °F 30.8 °F 3.2 °F 22% 30.03 in 10.0 mi WNW 15.0 mph - N/A   Clear
4:15 PM 39.2 °F 31.2 °F 3.2 °F 22% 30.03 in 10.0 mi WNW 13.8 mph 21.9 mph N/A   Clear
4:35 PM 37.4 °F 28.2 °F 3.2 °F 24% 30.04 in 10.0 mi West 16.1 mph 25.3 mph N/A   Clear
4:55 PM 37.4 °F 28.9 °F 5.0 °F 26% 30.04 in 10.0 mi WNW 13.8 mph 21.9 mph N/A   Clear
5:15 PM 35.6 °F 27.1 °F 5.0 °F 28% 30.06 in 10.0 mi WNW 12.7 mph 23.0 mph N/A   Clear
5:35 PM 35.6 °F 27.5 °F 5.0 °F 28% 30.07 in 10.0 mi West 11.5 mph 16.1 mph N/A   Clear
5:55 PM 33.8 °F 26.4 °F 6.8 °F 32% 30.08 in 10.0 mi West 9.2 mph - N/A   Clear
6:15 PM 30.2 °F 24.3 °F 8.6 °F 40% 30.09 in 10.0 mi WNW 5.8 mph - N/A   Clear
6:35 PM 30.2 °F 22.6 °F 8.6 °F 40% 30.10 in 10.0 mi West 8.1 mph - N/A   Clear
6:55 PM 30.2 °F 22.6 °F 8.6 °F 40% 30.10 in 10.0 mi West 8.1 mph - N/A   Clear
7:15 PM 30.2 °F 21.9 °F 10.4 °F 44% 30.12 in 10.0 mi West 9.2 mph - N/A   Clear
7:35 PM 28.4 °F 19.1 °F 10.4 °F 47% 30.12 in 10.0 mi WNW 10.4 mph 17.3 mph N/A   Clear
7:55 PM 30.2 °F 19.8 °F 10.4 °F 44% 30.13 in 10.0 mi WNW 13.8 mph - N/A   Clear
8:15 PM 28.4 °F 18.5 °F 10.4 °F 47% 30.13 in 10.0 mi WNW 11.5 mph - N/A   Clear
8:35 PM 28.4 °F 16.2 °F 10.4 °F 47% 30.13 in 10.0 mi WNW 17.3 mph 21.9 mph N/A   Clear
8:55 PM 28.4 °F 17.5 °F 10.4 °F 47% 30.13 in 10.0 mi WNW 13.8 mph 19.6 mph N/A   Clear
9:15 PM 28.4 °F 16.6 °F 10.4 °F 47% 30.13 in 10.0 mi WNW 16.1 mph - N/A   Clear
9:35 PM 28.4 °F 17.5 °F 12.2 °F 51% 30.14 in 10.0 mi WNW 13.8 mph 18.4 mph N/A   Clear
9:55 PM 28.4 °F 19.7 °F 12.2 °F 51% 30.14 in 10.0 mi WNW 9.2 mph - N/A   Clear
10:15 PM 28.4 °F 19.7 °F 12.2 °F 51% 30.13 in 10.0 mi WNW 9.2 mph 16.1 mph N/A   Clear
10:35 PM 28.4 °F 19.7 °F 12.2 °F 51% 30.13 in 10.0 mi West 9.2 mph - N/A   Clear
10:55 PM 28.4 °F 19.7 °F 12.2 °F 51% 30.14 in 10.0 mi WNW 9.2 mph - N/A   Clear
11:35 PM 26.6 °F 16.2 °F 12.2 °F 55% 30.13 in 10.0 mi WNW 11.5 mph 17.3 mph N/A   Clear
11:55 PM 26.6 °F 15.7 °F 12.2 °F 55% 30.12 in 10.0 mi NW 12.7 mph - N/A   Clear